{"data":{"norad_id":58940,"epoch":"2026-09-20T21:04:14.575008Z","epoch_age_seconds":123016,"freshness":"FRESH","line1":"1 58940U 24027K   26263.87794647  .00000993  00000+0  40540-4 0  9999","line2":"2 58940  53.1601 122.2087 0001274  86.7661 273.3487 15.34393777147223","mean_motion":15.34393777,"eccentricity":0.0001274,"inclination_deg":53.1601,"raan_deg":122.2087,"arg_perigee_deg":86.7661,"mean_anomaly_deg":273.3487,"bstar":4.054e-5,"rev_number":14722,"period_min":93.848138697189,"perigee_km":461.85021093405,"apogee_km":463.59326174006,"semimajor_km":6840.8587363371,"source":"CELESTRAK","updated_at":"2026-09-21T09:00:33.997675Z"}}